Flag for Switzerland Weather past 2 weeks in Pully, Vaud, Switzerland

Now
36 °F

Partly sunny.


Feels Like: 33 °F
Forecast: 26 / 36 °F
Wind: 3 mph from Northwest

Location: Aigle

Current Time: Jan 25, 2015 at 11:16:54 AM

Latest Report: Jan 25, 2015 at 10:00 AM


Visibility: 22 mi

Pressure: 30.37 "Hg

Humidity: 70%

Dew point: 27 °F

Location of PullyLocation

Historic Weather in Pully — Graph

°F

Pully temperature yesterday

Maximum temperature yesterday: 40 °F (at 1:00 PM)
Minimum temperature yesterday: 33 °F (at 8:00 AM)
Average temperature yesterday: 35 °F

Past Weeks' High & Low Weather Summary

 TemperatureHumidityPressure
High57 °F (Jan 10, 2:00 PM)100% (Jan 17, 11:00 PM)30.60 "Hg (Jan 17, 11:00 PM)
Low30 °F (Jan 18, 5:00 AM)36% (Jan 13, 12:00 PM)29.68 "Hg (Jan 16, 3:00 PM)
Average39 °F79%30.08 "Hg
* Reported Jan 10 9:00 AM — Jan 25 9:00 AM, Pully, Weather by CustomWeather, © 2014

Note: Actual official high and low records may vary slightly from our data, if they occured in-between our weather recording intervals... More about our weather records

Advertising

Pully weather history for previous 24 hours

 ConditionsComfort  
Time TempWeatherWind HumidityBarometerVisibility
9:00 AM
Jan 25
33 °FChilly.2 mph83%30.37 "HgN/A
8:00 AM32 °FChilly.3 mph88%30.37 "HgN/A
7:00 AM34 °FFog.1 mph83%30.34 "Hg6 mi
6:00 AM34 °FChilly.2 mph80%30.33 "HgN/A
5:00 AM33 °FChilly.2 mph84%30.33 "HgN/A
4:00 AM34 °FFog.5 mph80%30.32 "Hg5 mi
3:00 AM34 °FChilly.2 mph77%30.32 "HgN/A
2:00 AM34 °FChilly.3 mph80%30.32 "HgN/A
1:00 AM34 °FChilly.3 mph83%30.31 "HgN/A
12:00 AM34 °FChilly.8 mph79%30.30 "HgN/A
11:00 PM
Jan 24
33 °FChilly.8 mph85%30.30 "HgN/A
10:00 PM35 °FChilly.10 mph74%30.28 "HgN/A
9:00 PM34 °FChilly.9 mph85%30.27 "HgN/A
8:00 PM34 °FChilly.13 mph82%30.24 "HgN/A
7:00 PM34 °FLight snow. Overcast.10 mph92%30.22 "Hg5 mi
6:00 PM33 °FChilly.10 mph95%30.20 "HgN/A
5:00 PM33 °FChilly.8 mph95%30.19 "HgN/A
4:00 PM36 °FOvercast.12 mph87%30.17 "Hg14 mi
3:00 PM39 °FChilly.8 mph63%30.15 "HgN/A
2:00 PM39 °FChilly.3 mph60%30.15 "HgN/A
1:00 PM40 °FOvercast.1 mph65%30.19 "Hg16 mi
12:00 PM38 °FChilly.1 mph68%30.22 "HgN/A
11:00 AM36 °FChilly.3 mph72%30.24 "HgN/A
Weather by CustomWeather, © 2014

See weather overviewHow to use our weather pages